GW0118 Weather Reports


time (UTC)temp
F
wind
direction
speed
knots
gust
knots
rain 1hr
in
rain 24hr
in
rain mn
in
humidity
%
barometer
mb
20260831110110 79 0 0.0 5.2 0.00 0.00 0.00 41 1022.8
20260831104607 78 24 1.7 4.3 0.00 0.00 0.00 43 1023.0
20260831103104 77 247 1.7 5.2 0.00 0.00 0.00 46 1023.0
20260831101621 75 312 2.6 5.2 0.00 0.00 0.00 47 1023.2
20260831094610 73 41 3.5 8.7 0.00 0.00 0.00 51 1023.4
20260831093113 72 52 1.7 7.8 0.00 0.00 0.00 53 1023.3
20260831091605 71 39 5.2 9.6 0.00 0.00 0.00 54 1023.4
20260831090124 70 59 2.6 7.0 0.00 0.00 0.00 57 1023.3
20260831084603 69 47 1.7 7.8 0.00 0.00 0.00 60 1023.2
20260831083104 68 77 3.5 7.8 0.00 0.00 0.00 61 1023.2
20260831081603 67 56 3.5 7.0 0.00 0.00 0.00 61 1023.2
20260831080110 67 56 1.7 5.2 0.00 0.00 0.00 63 1023.1
20260831074603 65 71 1.7 5.2 0.00 0.00 0.00 65 1023.0
20260831073118 63 61 1.7 6.1 0.00 0.00 0.00 66 1023.1
20260831071609 62 103 2.6 4.3 0.00 0.00 0.00 66 1022.9
20260831070138 62 106 1.7 3.5 0.00 0.00 0.00 63 1022.8
20260831064606 62 0 0.0 1.7 0.00 0.00 0.00 59 1022.9
20260831063114 59 0 0.0 1.7 0.00 0.00 0.00 63 1023.0
20260831061611 59 49 0.0 1.7 0.00 0.00 0.00 62 1022.8
20260831060113 59 53 0.0 1.7 0.00 0.00 0.00 63 1022.8
20260831054605 59 0 0.0 2.6 0.00 0.00 0.00 63 1022.7
20260831053109 58 68 1.7 3.5 0.00 0.00 0.00 64 1022.6
20260831051622 59 68 2.6 4.3 0.00 0.00 0.00 62 1022.6
20260831050119 59 70 1.7 6.1 0.00 0.00 0.00 61 1022.4
20260831044605 58 60 3.5 5.2 0.00 0.00 0.00 60 1022.3
20260831043108 58 63 1.7 3.5 0.00 0.00 0.00 60 1022.2
20260831041613 59 65 1.7 4.3 0.00 0.00 0.00 60 1022.4
20260831034603 58 113 0.0 1.7 0.00 0.00 0.00 62 1022.3
20260831033109 60 97 0.9 2.6 0.00 0.00 0.00 58 1022.3
20260831031608 60 74 0.0 3.5 0.00 0.00 0.00 59 1022.1
20260831030105 60 56 0.0 3.5 0.00 0.00 0.00 59 1022.2
20260831024619 61 89 0.9 2.6 0.00 0.00 0.00 59 1022.2
20260831023107 61 0 0.0 2.6 0.00 0.00 0.00 59 1022.1
20260831021605 62 0 0.9 2.6 0.00 0.00 0.00 58 1022.1
20260831020109 62 0 0.0 0.9 0.00 0.00 0.00 57 1022.0
20260831014610 63 108 0.0 4.3 0.00 0.00 0.00 57 1022.0
20260831013104 63 113 0.0 2.6 0.00 0.00 0.00 57 1022.0
20260831011604 65 46 1.7 3.5 0.00 0.00 0.00 55 1022.0
20260831010134 65 0 0.0 3.5 0.00 0.00 0.00 55 1022.1
20260831004602 65 57 0.9 3.5 0.00 0.00 0.00 56 1022.0
20260831003111 65 41 1.7 4.3 0.00 0.00 0.00 56 1022.0
20260831001609 66 0 0.0 4.3 0.00 0.00 0.00 56 1022.1
20260831000109 65 51 0.9 3.5 0.00 0.00 0.00 56 1022.1
20260830234611 66 64 0.9 2.6 0.00 0.00 0.00 56 1022.2
20260830233105 67 43 2.6 4.3 0.00 0.00 0.00 55 1022.1
20260830231603 68 53 0.0 1.7 0.00 0.00 0.00 54 1022.1
20260830230109 68 63 0.0 3.5 0.00 0.00 0.00 53 1022.0
20260830224610 68 52 0.9 3.5 0.00 0.00 0.00 54 1021.9
20260830223103 69 52 0.9 3.5 0.00 0.00 0.00 54 1022.0
20260830221605 69 67 1.7 3.5 0.00 0.00 0.00 54 1021.9
20260830220131 70 42 1.7 2.6 0.00 0.00 0.00 53 1021.9
20260830214605 70 53 1.7 4.3 0.00 0.00 0.00 52 1022.0
20260830213112 70 350 1.7 3.5 0.00 0.00 0.00 51 1021.9
20260830211626 71 63 0.9 3.5 0.00 0.00 0.00 50 1021.8
20260830210106 71 0 0.0 1.7 0.00 0.00 0.00 49 1021.7
20260830204604 72 37 0.0 1.7 0.00 0.00 0.00 48 1021.7
20260830203123 73 0 0.0 1.7 0.00 0.00 0.00 47 1021.6
20260830201602 74 0 0.9 3.5 0.00 0.00 0.00 47 1021.5
20260830200105 75 129 0.0 5.2 0.00 0.00 0.00 44 1021.4
20260830194607 75 16 1.7 3.5 0.00 0.00 0.00 43 1021.2
20260830193106 75 34 2.6 6.1 0.00 0.00 0.00 39 1021.0
20260830191602 77 0 0.0 3.5 0.00 0.00 0.00 34 1020.6
20260830190107 78 213 1.7 6.1 0.00 0.00 0.00 33 1020.3
20260830184605 79 226 1.7 7.8 0.00 0.00 0.00 32 1020.2
20260830183123 80 244 3.5 7.8 0.00 0.00 0.00 31 1020.1
20260830181625 81 263 7.0 13.0 0.00 0.00 0.00 30 1020.0
20260830180112 83 256 5.2 12.2 0.00 0.00 0.00 29 1020.0
20260830174602 83 229 5.2 13.0 0.00 0.00 0.00 29 1020.0
20260830173143 83 214 6.1 12.2 0.00 0.00 0.00 29 1019.9
20260830171606 83 212 6.1 12.2 0.00 0.00 0.00 29 1019.8
20260830170109 83 274 5.2 12.2 0.00 0.00 0.00 29 1019.8
20260830164609 84 213 5.2 12.2 0.00 0.00 0.00 29 1019.9
20260830163106 83 93 7.0 18.2 0.00 0.00 0.00 29 1019.8
20260830161633 84 260 4.3 16.5 0.00 0.00 0.00 28 1019.8
20260830160104 84 231 7.0 12.2 0.00 0.00 0.00 28 1019.9
20260830154609 84 210 7.0 16.5 0.00 0.00 0.00 28 1020.0
20260830153107 83 205 4.3 16.5 0.00 0.00 0.00 29 1019.8
20260830151610 83 245 9.6 16.5 0.00 0.00 0.00 27 1019.8
20260830150106 83 255 7.8 16.5 0.00 0.00 0.00 29 1019.9
20260830144607 83 268 7.0 18.2 0.00 0.00 0.00 28 1020.1
20260830143106 82 214 10.4 17.4 0.00 0.00 0.00 28 1020.2
20260830141606 83 224 7.0 17.4 0.00 0.00 0.00 27 1020.3
20260830140111 82 238 9.6 16.5 0.00 0.00 0.00 28 1020.4
20260830134608 82 220 7.0 13.9 0.00 0.00 0.00 28 1020.6
20260830133108 82 314 9.6 15.6 0.00 0.00 0.00 28 1020.6
20260830131617 81 274 7.8 15.6 0.00 0.00 0.00 29 1020.8
20260830130113 80 274 12.2 20.0 0.00 0.00 0.00 29 1020.9
20260830124606 80 300 11.3 16.5 0.00 0.00 0.00 29 1021.0
20260830123106 81 273 6.1 17.4 0.00 0.00 0.00 30 1021.1
20260830121604 80 214 9.6 17.4 0.00 0.00 0.00 30 1021.1
20260830120106 79 271 9.6 18.2 0.00 0.00 0.00 30 1020.9
20260830114606 79 238 8.7 13.9 0.00 0.00 0.00 29 1021.1
20260830113106 79 297 7.8 16.5 0.00 0.00 0.00 31 1021.2
20260830111604 79 265 5.2 19.1 0.00 0.00 0.00 31 1021.4